Overview Statistics Trail Chart Weather Telemetry Raw packets
 

This is the latest recevied weather packets stored in our database for station/object N5ATR. If no packets are shown the sender has not sent any weather packets the latest 10 day(s).

<< 88 89 90 91 92 93 94 >>
Time Temp. Humidity Pressure Rain* Wind** Luminosity Snow
1788041669 31.11° C 27% 1022.4 hPa 0 mm - 435 W/m² -
1788041364 31.67° C 26% 1022.6 hPa 0 mm - 445 W/m² -
1788041063 31.67° C 25% 1022.9 hPa 0 mm - 458 W/m² -
1788040762 32.22° C 26% 1022.9 hPa 0 mm - 470 W/m² -
1788040456 32.22° C 26% 1022.9 hPa 0 mm - 484 W/m² -
1788040153 31.67° C 27% 1022.6 hPa 0 mm - 499 W/m² -
1788039852 32.22° C 27% 1022.8 hPa 0 mm - 530 W/m² -
1788039547 31.11° C 27% 1022.9 hPa 0 mm - 554 W/m² -
1788039243 31.67° C 27% 1023 hPa 0 mm - 577 W/m² -
1788038937 31.67° C 26% 1022.9 hPa 0 mm - 633 W/m² -
1788038633 32.22° C 27% 1023 hPa 0 mm - 630 W/m² -
1788038332 31.67° C 27% 1023 hPa 0 mm - 621 W/m² -
1788038028 31.67° C 27% 1023 hPa 0 mm - 665 W/m² -
1788037727 31.67° C 27% 1023.4 hPa 0 mm - 674 W/m² -
1788037423 31.67° C 27% 1023.4 hPa 0 mm - 367 W/m² -
1788037122 31.11° C 28% 1023.3 hPa 0 mm - 561 W/m² -
1788036817 32.78° C 26% 1023.6 hPa 0 mm - 602 W/m² -
1788036514 31.67° C 28% 1023.9 hPa 0 mm - 654 W/m² -
1788036214 31.67° C 27% 1023.5 hPa 0 mm - 640 W/m² -
1788035915 32.22° C 27% 1023.5 hPa 0 mm - 648 W/m² -
1788035614 31.11° C 28% 1023.8 hPa 0 mm - 652 W/m² -
1788035309 31.67° C 27% 1024 hPa 0 mm - 657 W/m² -
1788035005 30.56° C 29% 1023.9 hPa 0 mm - 663 W/m² -
1788034702 31.11° C 28% 1024 hPa 0 mm - 669 W/m² -
1788034397 31.11° C 28% 1024.1 hPa 0 mm - 673 W/m² -

* Rain latest hour (hover to see other rain measurements)
** Current wind speed in m/s (hover to see current wind gust speed)